| time (UTC) | temp F | wind direction | speed knots | gust knots | rain 1hr in | rain 24hr in | rain mn in | humidity % | barometer mb |
| 20260903121557 | 75 | 122 | 1.7 | 5.2 | 0.00 | 0.01 | 0.00 | 96 | 1018.7 |
| 20260903120058 | 74 | 122 | 2.6 | 5.2 | 0.00 | 0.01 | 0.00 | 96 | 1018.6 |
| 20260903114554 | 74 | 101 | 2.6 | 7.8 | 0.00 | 0.01 | 0.00 | 96 | 1018.6 |
| 20260903113059 | 75 | 73 | 4.3 | 8.7 | 0.00 | 0.01 | 0.00 | 96 | 1018.6 |
| 20260903111605 | 74 | 60 | 2.6 | 7.0 | 0.00 | 0.01 | 0.00 | 96 | 1018.4 |
| 20260903110112 | 74 | 84 | 2.6 | 7.0 | 0.00 | 0.01 | 0.00 | 96 | 1018.3 |
| 20260903104556 | 74 | 67 | 3.5 | 7.8 | 0.00 | 0.01 | 0.00 | 96 | 1018.1 |
| 20260903103056 | 75 | 18 | 0.9 | 2.6 | 0.00 | 0.01 | 0.00 | 97 | 1018.1 |
| 20260903101604 | 75 | 107 | 0.9 | 1.7 | 0.00 | 0.01 | 0.00 | 97 | 1018.3 |
| 20260903100053 | 74 | 0 | 0.0 | 0.0 | 0.00 | 0.01 | 0.00 | 96 | 1017.7 |
| 20260903094559 | 75 | 0 | 0.0 | 0.9 | 0.00 | 0.01 | 0.00 | 97 | 1017.5 |
| 20260903093056 | 75 | 0 | 0.0 | 1.7 | 0.00 | 0.01 | 0.00 | 97 | 1017.5 |
| 20260903091553 | 75 | 0 | 0.0 | 2.6 | 0.00 | 0.01 | 0.00 | 97 | 1017.5 |
| 20260903090101 | 75 | 107 | 1.7 | 5.2 | 0.00 | 0.01 | 0.00 | 96 | 1017.4 |
| 20260903084557 | 75 | 98 | 0.9 | 3.5 | 0.00 | 0.01 | 0.00 | 96 | 1017.4 |
| 20260903083059 | 75 | 49 | 0.9 | 5.2 | 0.00 | 0.01 | 0.00 | 96 | 1017.8 |
| 20260903081553 | 75 | 59 | 3.5 | 7.0 | 0.00 | 0.01 | 0.00 | 96 | 1017.7 |
| 20260903080104 | 75 | 42 | 3.5 | 10.4 | 0.00 | 0.00 | 0.00 | 97 | 1018.1 |
| 20260903074607 | 75 | 23 | 3.5 | 7.0 | 0.00 | 0.00 | 0.00 | 97 | 1018.3 |
| 20260903073055 | 75 | 57 | 1.7 | 3.5 | 0.00 | 0.00 | 0.00 | 97 | 1017.6 |
| 20260903071556 | 74 | 0 | 0.0 | 0.9 | 0.00 | 0.00 | 0.00 | 96 | 1017.2 |
| 20260903070052 | 75 | 137 | 0.0 | 1.7 | 0.00 | 0.00 | 0.00 | 96 | 1016.9 |
| 20260903064601 | 74 | 137 | 0.0 | 2.6 | 0.00 | 0.00 | 0.00 | 96 | 1016.7 |
| 20260903063054 | 74 | 68 | 0.9 | 3.5 | 0.00 | 0.00 | 0.00 | 96 | 1016.8 |
| 20260903061559 | 75 | 127 | 2.6 | 4.3 | 0.00 | 0.00 | 0.00 | 96 | 1016.7 |
| 20260903060100 | 75 | 120 | 0.9 | 1.7 | 0.00 | 0.00 | 0.00 | 96 | 1017.2 |
| 20260903054557 | 74 | 120 | 0.9 | 2.6 | 0.00 | 0.00 | 0.00 | 96 | 1017.3 |
| 20260903053108 | 74 | 0 | 0.0 | 1.7 | 0.00 | 0.00 | 0.00 | 96 | 1017.8 |
| 20260903051603 | 74 | 0 | 0.0 | 2.6 | 0.00 | 0.00 | 0.00 | 96 | 1018.0 |
| 20260903050104 | 74 | 0 | 0.0 | 0.9 | 0.00 | 0.00 | 0.00 | 96 | 1018.3 |
| 20260903044558 | 75 | 118 | 2.6 | 6.1 | 0.00 | 0.48 | 0.00 | 96 | 1017.7 |
| 20260903043051 | 75 | 87 | 1.7 | 4.3 | 0.00 | 0.48 | 0.00 | 96 | 1017.9 |
| 20260903041604 | 75 | 76 | 1.7 | 6.1 | 0.00 | 0.48 | 0.00 | 96 | 1018.3 |
| 20260903040059 | 75 | 113 | 1.7 | 3.5 | 0.00 | 0.48 | 0.00 | 96 | 1018.3 |
| 20260903034550 | 75 | 113 | 1.7 | 3.5 | 0.00 | 0.57 | 0.48 | 96 | 1018.4 |
| 20260903033112 | 75 | 113 | 1.7 | 3.5 | 0.00 | 0.57 | 0.48 | 96 | 1017.9 |
| 20260903031555 | 75 | 113 | 0.0 | 2.6 | 0.00 | 0.57 | 0.48 | 96 | 1018.2 |
| 20260903030054 | 75 | 113 | 2.6 | 5.2 | 0.00 | 0.57 | 0.48 | 95 | 1018.3 |
| 20260903024606 | 75 | 113 | 0.0 | 2.6 | 0.00 | 0.57 | 0.48 | 95 | 1018.4 |
| 20260903023052 | 75 | 113 | 0.9 | 3.5 | 0.00 | 0.57 | 0.48 | 95 | 1018.4 |
| 20260903021606 | 75 | 113 | 2.6 | 6.1 | 0.00 | 0.57 | 0.48 | 95 | 1018.1 |
| 20260903020056 | 75 | 109 | 3.5 | 7.0 | 0.00 | 0.57 | 0.48 | 95 | 1018.0 |
| 20260903014554 | 75 | 101 | 2.6 | 6.1 | 0.00 | 0.57 | 0.48 | 95 | 1018.2 |
| 20260903013100 | 75 | 128 | 3.5 | 7.8 | 0.00 | 0.57 | 0.48 | 94 | 1018.3 |
| 20260903011559 | 75 | 122 | 3.5 | 7.0 | 0.00 | 0.57 | 0.48 | 94 | 1018.4 |
| 20260903010110 | 75 | 103 | 4.3 | 7.0 | 0.00 | 0.57 | 0.48 | 94 | 1018.4 |
| 20260903004558 | 75 | 108 | 3.5 | 7.8 | 0.00 | 0.57 | 0.48 | 94 | 1018.3 |
| 20260903003050 | 75 | 106 | 3.5 | 7.0 | 0.00 | 0.57 | 0.48 | 94 | 1018.1 |
| 20260903001603 | 75 | 109 | 2.6 | 7.8 | 0.00 | 0.57 | 0.48 | 94 | 1018.1 |
| 20260903000104 | 75 | 98 | 4.3 | 7.8 | 0.00 | 0.57 | 0.48 | 94 | 1018.0 |
| 20260902234552 | 75 | 128 | 5.2 | 7.8 | 0.00 | 0.57 | 0.48 | 93 | 1018.0 |
| 20260902233047 | 75 | 110 | 2.6 | 6.1 | 0.00 | 0.57 | 0.48 | 93 | 1018.2 |
| 20260902231555 | 75 | 110 | 3.5 | 8.7 | 0.00 | 0.57 | 0.48 | 93 | 1018.0 |
| 20260902230053 | 76 | 108 | 3.5 | 7.0 | 0.00 | 0.57 | 0.48 | 93 | 1018.0 |
| 20260902224552 | 75 | 78 | 2.6 | 7.0 | 0.00 | 0.57 | 0.48 | 93 | 1018.2 |
| 20260902223052 | 75 | 107 | 4.3 | 8.7 | 0.00 | 0.57 | 0.48 | 93 | 1017.9 |
| 20260902221616 | 75 | 111 | 5.2 | 7.8 | 0.00 | 0.57 | 0.48 | 92 | 1018.4 |
| 20260902220059 | 75 | 58 | 5.2 | 11.3 | 0.00 | 0.57 | 0.48 | 92 | 1018.6 |
| 20260902214556 | 75 | 71 | 4.3 | 9.6 | 0.00 | 0.57 | 0.48 | 92 | 1018.6 |
| 20260902213101 | 75 | 87 | 4.3 | 9.6 | 0.00 | 0.57 | 0.48 | 92 | 1018.6 |
| 20260902211611 | 76 | 90 | 2.6 | 7.8 | 0.00 | 0.57 | 0.48 | 92 | 1018.9 |
| 20260902204554 | 75 | 185 | 4.3 | 11.3 | 0.00 | 0.57 | 0.48 | 93 | 1017.6 |
| 20260902203052 | 75 | 218 | 3.5 | 11.3 | 0.00 | 0.57 | 0.48 | 92 | 1016.6 |
| 20260902201629 | 75 | 153 | 8.7 | 16.5 | 0.00 | 0.57 | 0.48 | 92 | 1016.3 |
| 20260902200105 | 75 | 148 | 7.0 | 12.2 | 0.00 | 0.57 | 0.48 | 90 | 1017.2 |
| 20260902194551 | 76 | 112 | 8.7 | 13.0 | 0.00 | 0.57 | 0.48 | 90 | 1018.2 |
| 20260902193050 | 76 | 62 | 1.7 | 4.3 | 0.00 | 0.57 | 0.48 | 88 | 1020.1 |
| 20260902191556 | 76 | 41 | 4.3 | 9.6 | 0.00 | 0.57 | 0.48 | 87 | 1020.5 |
| 20260902190056 | 77 | 93 | 5.2 | 10.4 | 0.00 | 0.57 | 0.48 | 86 | 1019.8 |
| 20260902184608 | 77 | 64 | 7.0 | 11.3 | 0.00 | 0.57 | 0.48 | 86 | 1020.0 |
| 20260902183055 | 77 | 42 | 6.1 | 12.2 | 0.00 | 0.57 | 0.48 | 86 | 1019.8 |
| 20260902181611 | 77 | 79 | 7.8 | 12.2 | 0.00 | 0.57 | 0.48 | 85 | 1020.2 |
| 20260902180059 | 77 | 67 | 6.1 | 12.2 | 0.00 | 0.57 | 0.48 | 85 | 1020.1 |
| 20260902174552 | 77 | 58 | 7.8 | 11.3 | 0.00 | 0.57 | 0.48 | 86 | 1020.0 |
| 20260902173056 | 77 | 46 | 6.1 | 12.2 | 0.00 | 0.57 | 0.48 | 87 | 1020.2 |
| 20260902171608 | 77 | 61 | 7.0 | 12.2 | 0.00 | 0.57 | 0.48 | 87 | 1019.8 |
| 20260902170053 | 77 | 74 | 7.0 | 12.2 | 0.00 | 0.57 | 0.48 | 85 | 1019.8 |
| 20260902164602 | 77 | 76 | 5.2 | 10.4 | 0.00 | 0.57 | 0.48 | 87 | 1019.5 |
| 20260902163054 | 77 | 66 | 8.7 | 13.0 | 0.00 | 0.57 | 0.48 | 87 | 1019.7 |
| 20260902161600 | 78 | 73 | 7.0 | 13.0 | 0.00 | 0.57 | 0.48 | 86 | 1019.6 |
| 20260902160049 | 77 | 103 | 8.7 | 13.0 | 0.00 | 0.57 | 0.48 | 86 | 1019.6 |
| 20260902154604 | 78 | 73 | 7.8 | 14.8 | 0.00 | 0.57 | 0.48 | 87 | 1019.6 |
| 20260902153056 | 78 | 77 | 8.7 | 13.9 | 0.00 | 0.57 | 0.48 | 87 | 1019.6 |
| 20260902151555 | 78 | 76 | 10.4 | 14.8 | 0.00 | 0.57 | 0.48 | 88 | 1019.6 |
| 20260902150052 | 78 | 69 | 7.8 | 14.8 | 0.00 | 0.57 | 0.48 | 88 | 1019.8 |
| 20260902144555 | 77 | 71 | 8.7 | 13.9 | 0.00 | 0.57 | 0.48 | 89 | 1019.9 |
| 20260902143053 | 77 | 92 | 6.1 | 11.3 | 0.00 | 0.57 | 0.48 | 90 | 1019.9 |
| 20260902141553 | 77 | 69 | 5.2 | 9.6 | 0.00 | 0.57 | 0.48 | 91 | 1019.8 |
| 20260902140051 | 77 | 57 | 5.2 | 11.3 | 0.00 | 0.57 | 0.48 | 90 | 1019.5 |
| 20260902134611 | 77 | 60 | 7.8 | 11.3 | 0.00 | 0.57 | 0.48 | 90 | 1019.3 |
| 20260902133059 | 77 | 99 | 6.1 | 12.2 | 0.00 | 0.57 | 0.48 | 90 | 1019.0 |
| 20260902131552 | 76 | 84 | 6.1 | 11.3 | 0.00 | 0.57 | 0.48 | 91 | 1018.9 |
| 20260902130046 | 76 | 81 | 7.8 | 12.2 | 0.00 | 0.57 | 0.48 | 92 | 1018.7 |
| 20260902124602 | 75 | 104 | 6.1 | 12.2 | 0.00 | 0.56 | 0.48 | 94 | 1018.8 |
| 20260902123050 | 75 | 51 | 3.5 | 7.8 | 0.00 | 0.56 | 0.48 | 95 | 1018.8 |